#timestamp,LO_Frequency,Hit,StdDev 
1716372015.8,286001600.9,N
1716372035.7,286001601.0,N
1716372055.5,286001601.8,N
1716372075.3,286001601.1,N
1716372095.2,286001601.3,N
1716372115.0,286001601.4,N
1716372115.9,286001601.4,N
1716372135.8,286001601.3,N
1716372155.6,286001603.4,N
1716372175.4,286001605.1,N
1716372195.3,286001602.6,N
1716372215.1,286001602.9,N
1716372235.8,286001603.0,N
1716372255.7,286001603.6,N
1716372275.5,286001600.8,N
1716372295.3,286001600.8,N
1716372315.2,286001600.8,N
1716372335.0,286001601.0,N
1716372335.9,286001601.0,N
1716372355.8,286001601.0,N
1716372375.6,286001601.9,N
1716372395.4,286001602.1,Y
1716372415.3,286046999.1,P
1716372435.1,286046998.3,N
1716372455.9,286047000.7,N
1716372475.7,286047000.7,N
1716372495.5,286046998.2,N
1716372515.4,286046998.5,N
1716372535.2,286046999.3,N
1716372555.0,286046998.4,N
1716372555.9,286046998.4,N
1716372575.8,286046999.0,N
1716372595.6,286046998.6,N
1716372615.5,286047000.9,N
1716372635.3,286047000.6,N
1716372655.1,286047002.1,N
1716372675.9,286047002.1,N
1716372695.7,286047002.0,N
1716372715.5,286047004.3,N
1716372735.4,286047004.1,N
1716372755.2,286047004.2,N
1716372775.1,286047003.7,N
1716372776.0,286047003.7,N
1716372795.8,286047004.3,N
1716372815.6,286047003.6,N
1716372835.5,286047003.1,N
1716372855.3,286047004.4,N
1716372875.1,286047003.6,N
1716372895.9,286047003.1,N
1716372915.7,286047003.1,N
1716372935.6,286047003.0,N
1716372955.4,286047005.6,N
1716372975.2,286047006.0,N
1716372995.1,286047002.9,N
1716372996.0,286047002.9,N
1716373015.8,286047003.7,N
1716373035.7,286047003.7,N
1716373055.5,286047003.1,N
1716373075.3,286047003.8,N
1716373095.2,286047004.1,N
1716373115.0,286047004.4,N
1716373115.9,286047004.4,N
1716373135.8,286047003.8,N
1716373155.6,286047003.0,N
1716373175.4,286047005.9,Y
1716373195.3,286047002.8,P
1716373215.1,286047002.7,P
1716373235.8,286047000.1,N
1716373255.7,286047000.5,N
1716373275.5,286047000.6,N
1716373295.3,286047001.1,N
1716373315.2,286047000.4,N
1716373335.0,286047000.1,N
1716373335.9,286047000.1,N
1716373355.8,286047000.0,N
1716373375.6,286047002.7,N
1716373395.4,286046999.9,N
1716373415.3,286047000.3,N
1716373435.1,286047002.2,N
1716373455.8,286046999.8,N
1716373475.7,286046999.8,N
1716373495.5,286046999.7,N
1716373515.4,286047002.7,N
1716373535.2,286047002.4,N
1716373555.0,286047002.7,N
1716373555.9,286047002.7,N
1716373575.8,286047002.7,N
1716373595.6,286047002.7,N
1716373615.4,286047000.0,N
1716373635.3,286047000.1,N
1716373655.1,286047002.4,N
1716373675.9,286046999.8,N
1716373695.7,286047000.6,N
1716373715.5,286047000.3,N
1716373735.4,286047002.7,N
1716373755.2,286047000.1,N
1716373775.0,286047000.1,N
1716373775.9,286047000.1,N
1716373795.8,286047002.3,N
1716373815.6,286047002.4,N
1716373835.4,286047002.4,N
1716373855.3,286047000.0,N
1716373875.1,286047000.0,N
1716373895.9,286047002.0,N
1716373915.7,286047002.6,N
1716373935.5,286047002.1,N
1716373955.4,286047001.5,N
1716373975.2,286047002.6,N
1716373995.0,286047000.2,N
1716373995.9,286047000.2,N
1716374015.8,286047000.1,N
1716374035.6,286047002.8,N
1716374055.5,286047002.3,N
1716374075.3,286047002.1,N
1716374095.1,286047001.5,N
1716374115.9,286047001.9,N
1716374135.7,286047002.4,N
1716374155.5,286047001.9,N
1716374175.4,286047002.5,N
1716374195.2,286047001.6,N
1716374215.1,286047002.7,N
1716374216.0,286047002.7,N
1716374235.8,286047002.8,N
1716374255.6,286047002.2,N
1716374275.5,286047000.1,N
1716374295.3,286047000.9,N
1716374315.1,286047000.4,N
1716374335.9,286047000.3,N
1716374355.7,286047000.6,N
1716374375.6,286047001.2,N
1716374395.4,286046998.7,N
1716374415.2,286047001.1,N
1716374435.1,286047000.8,N
1716374436.0,286047000.8,N
1716374455.8,286047000.3,N
1716374475.6,286047000.4,N
1716374495.5,286046998.1,N
1716374515.3,286047001.2,N
1716374535.2,286047001.0,N
1716374555.9,286047000.5,N
1716374575.7,286047000.9,N
1716374595.6,286047000.4,N
1716374615.4,286047000.7,N
1716374635.2,286047000.4,N
1716374655.1,286046998.1,N
1716374656.0,286046998.1,N
1716374675.8,286047000.6,N
1716374695.7,286047000.5,N
1716374715.5,286047000.6,N
1716374735.3,286047001.0,N
1716374755.2,286047001.0,N
1716374775.9,286047000.4,N
1716374795.7,286046999.9,N
1716374815.6,286046999.9,N
1716374835.4,286047002.6,N
1716374855.2,286047002.4,N
1716374875.1,286046999.7,N
1716374876.0,286046999.7,N
1716374895.8,286047000.3,N
1716374915.7,286047002.7,N
1716374935.5,286047000.3,N
1716374955.3,286046999.7,N
1716374975.2,286046999.8,N
1716374995.0,286047002.1,N
1716374995.9,286047002.1,N
1716375015.7,286047002.0,N
1716375035.6,286047002.5,N
1716375055.4,286046999.7,N
1716375075.3,286046999.8,N
1716375095.1,286047000.5,N
1716375096.0,286047000.5,N
1716375115.8,286046999.8,N
1716375135.7,286047000.9,N
1716375155.5,286046999.8,N
1716375175.3,286047000.3,N
1716375195.2,286047000.2,N
1716375215.0,286047000.1,N
1716375215.9,286047000.1,N
1716375235.8,286047000.5,N
1716375255.6,286047000.9,N
1716375275.4,286047000.6,N
1716375295.3,286047000.7,N
1716375315.1,286047000.9,N
1716375335.8,286047000.6,N
1716375355.7,286047000.6,N
1716375375.5,286047000.7,N
1716375395.4,286046998.6,N
1716375415.2,286046998.1,N
1716375435.0,286046998.4,N
1716375435.9,286046998.4,N
1716375455.8,286046999.4,N
1716375475.6,286046999.4,N
1716375495.4,286046999.3,N
1716375515.3,286046999.3,N
1716375535.1,286046999.4,N
1716375555.9,286046999.5,N
1716375575.7,286046996.9,Y
1716375595.5,286046996.6,P
